Theta_e
315 319 320 321 320 319 319 320 323 324 323 319 317 317 317 316 315 314 313 311 308 311 314 314 312 313 314 313 313 311 311 316 319 319 319 318 315 315 317 320 321 322 322 320 321 323 324 325 326 327 328 328 329 329 330 330 330 331 332 332 332 333 333 333 334 334 334 333 333 333 334 334 334 335 335 335 335 335 334 334 334 334 333 333 332 331
316 320 320 321 320 318 319 319 319 320 318 316 317 316 316 316 316 313 311 310 309 311 315 315 312 312 313 312 312 311 310 312 315 316 317 317 313 311 312 314 315 316 316 315 315 317 320 323 324 326 326 327 328 328 329 330 330 330 330 331 331 332 332 332 333 333 333 333 333 333 333 333 333 333 334 334 333 332 333 332 332 333 333 333 333 332
318 320 321 322 321 318 319 318 317 317 316 317 317 316 318 316 315 313 310 311 310 310 316 315 311 313 313 312 311 310 310 311 311 312 314 314 314 312 312 311 310 311 312 312 311 311 315 318 320 323 324 325 327 328 328 328 329 330 329 330 330 331 332 332 332 332 333 333 332 332 332 332 332 332 332 332 331 331 331 331 331 331 332 332 332 331
320 321 320 321 320 318 319 318 317 317 317 317 317 318 319 314 314 315 311 311 311 310 313 313 311 313 312 311 312 311 309 310 311 311 311 312 313 313 313 311 309 310 311 311 310 308 309 312 314 318 320 322 324 326 327 327 328 329 329 329 330 330 330 331 331 332 332 332 332 332 332 332 332 332 331 331 331 331 331 332 332 332 332 332 331 331
321 319 318 318 318 318 319 319 319 320 320 318 317 319 318 314 313 314 313 313 313 312 311 311 314 315 316 315 314 313 310 309 310 310 311 311 311 311 311 311 311 311 311 311 310 308 306 307 310 313 316 318 322 323 324 326 326 327 328 328 329 329 329 330 331 331 331 332 332 332 332 332 332 332 332 331 331 331 331 331 332 333 333 333 333 331
319 315 316 318 318 318 318 319 320 322 323 321 319 318 317 315 312 312 315 314 315 317 312 311 316 320 324 321 316 315 314 313 311 310 312 311 309 309 310 310 310 310 310 310 310 307 305 305 307 310 312 315 318 320 320 322 323 325 326 327 328 328 328 329 329 330 330 331 331 331 331 331 331 332 332 331 331 331 331 331 332 333 334 333 333 332
317 313 315 319 318 319 319 318 318 321 323 323 322 317 314 315 314 313 315 312 317 319 311 309 315 320 321 319 318 319 316 315 313 311 313 312 309 309 309 309 309 308 309 309 308 306 304 305 305 306 309 312 315 316 316 318 321 324 325 326 326 326 327 327 328 329 329 330 330 331 330 330 331 331 331 331 331 331 331 331 332 332 333 332 331 331
314 313 316 318 318 319 319 318 317 318 323 325 321 314 314 315 315 316 314 313 319 320 313 312 314 315 315 314 317 317 314 316 315 313 315 313 311 311 309 309 308 309 309 309 310 308 304 303 304 305 307 309 311 313 315 317 319 322 323 324 325 326 326 326 327 328 329 329 329 330 330 330 330 330 330 331 330 331 330 331 331 331 331 331 331 331
312 316 318 317 318 318 319 319 317 317 322 322 316 313 315 315 316 317 315 314 315 315 316 316 313 314 318 319 318 314 312 315 315 315 316 315 315 315 312 310 309 309 308 309 310 308 305 303 303 305 305 307 309 310 312 314 316 319 321 324 325 326 326 326 327 328 328 329 329 329 330 330 330 330 330 330 330 330 330 330 330 330 330 330 330 330
310 314 315 316 318 318 319 319 316 317 318 315 313 315 316 317 318 317 316 315 315 314 318 318 314 315 319 322 319 313 312 314 314 315 315 314 315 314 313 312 309 308 309 311 309 304 302 303 304 304 305 306 307 308 309 311 314 317 320 323 325 325 326 326 327 327 328 328 329 329 329 330 330 330 330 330 330 330 330 330 330 330 329 329 328 328
310 312 312 315 317 317 317 315 313 318 317 312 314 316 316 319 319 319 321 318 316 318 316 315 314 314 317 321 318 314 314 315 314 314 314 314 315 315 313 311 309 309 310 311 309 302 299 301 303 303 304 305 305 306 307 309 313 316 318 321 323 325 325 326 327 327 328 328 328 329 329 329 329 330 330 330 330 330 330 330 330 330 329 328 328 327
309 311 313 313 314 314 314 312 312 316 314 314 318 317 315 319 318 320 324 319 317 319 315 310 311 313 317 319 316 314 313 312 312 313 315 315 317 317 314 313 313 312 310 313 315 309 302 300 301 301 302 303 304 304 305 307 310 314 318 320 322 324 325 326 326 327 328 328 328 328 329 329 329 330 330 329 329 329 330 330 330 330 329 329 329 327
311 313 313 311 311 312 314 314 313 313 313 315 317 315 317 320 318 319 322 318 318 319 313 309 310 312 315 317 316 314 312 312 312 310 312 313 314 315 313 312 314 312 311 313 316 315 309 303 300 300 301 302 303 304 305 306 308 312 317 320 322 323 324 325 326 327 327 327 328 328 328 329 329 330 330 329 329 329 329 330 330 329 329 329 328 328
314 314 312 310 310 312 314 314 313 312 313 313 313 315 319 319 319 319 318 318 321 319 310 308 310 313 317 316 315 314 311 313 313 309 309 309 309 310 308 307 309 308 308 309 310 314 313 305 300 301 302 302 303 304 305 306 307 311 315 319 321 323 323 325 326 326 327 327 328 328 328 329 329 329 330 330 330 329 329 329 329 329 329 329 328 328
318 317 312 312 313 313 313 313 316 315 312 313 314 316 318 319 322 323 320 319 321 317 309 307 312 320 322 317 313 312 311 312 312 310 309 308 306 306 306 305 307 308 308 309 311 315 311 302 302 304 304 304 304 304 305 307 308 311 314 317 320 321 323 324 325 326 326 327 328 328 328 329 329 329 329 330 330 330 330 329 329 329 329 329 329 328
317 316 311 310 311 311 312 315 318 315 312 315 316 315 317 320 324 323 318 318 319 318 313 310 315 320 319 315 311 310 311 312 311 311 311 311 307 306 308 310 311 310 309 311 316 319 311 301 303 306 306 307 307 306 307 307 309 312 314 317 319 321 322 323 324 325 326 327 327 328 328 328 329 329 329 330 330 330 330 330 330 330 330 330 329 328
316 313 310 310 309 310 314 315 315 315 315 315 314 314 314 316 323 320 313 312 314 318 318 313 314 317 315 314 313 312 313 314 313 312 311 312 311 311 313 313 310 310 311 313 317 318 310 302 304 307 308 309 309 308 309 309 310 312 314 317 319 320 322 322 324 324 325 326 326 327 327 328 328 328 328 329 329 329 329 329 330 330 330 330 329 328
315 313 310 312 310 309 313 315 312 313 315 313 314 316 312 313 321 321 317 314 313 316 320 316 313 315 315 318 319 315 313 313 314 311 310 312 314 315 316 313 308 309 314 317 317 312 304 300 305 309 309 310 310 310 310 310 311 311 312 315 317 319 321 322 323 324 324 325 326 326 326 327 327 327 328 328 328 329 329 329 329 329 329 329 328 328
316 316 311 310 312 310 311 314 312 311 310 312 316 317 314 317 319 318 318 319 315 316 321 319 314 311 313 317 319 314 312 314 314 310 310 311 311 314 317 316 312 312 316 319 319 316 307 302 306 310 310 310 311 310 311 311 311 311 311 312 312 314 316 318 321 323 324 324 324 325 325 326 326 326 326 327 327 328 328 328 329 328 329 329 328 327
316 322 316 309 311 311 310 312 313 313 309 310 314 313 313 316 317 316 316 318 318 317 320 323 319 314 314 314 316 314 312 313 313 312 313 311 310 313 317 318 316 314 315 317 318 320 312 303 306 310 310 310 311 311 312 311 311 312 311 311 311 311 311 313 314 317 320 322 323 324 324 324 325 325 326 326 327 327 328 328 329 329 328 328 328 327
313 318 317 311 309 311 314 313 313 314 311 310 313 313 311 311 314 317 315 314 319 321 321 320 318 320 320 314 312 313 312 312 313 312 314 314 314 315 316 315 314 312 312 313 315 318 311 302 306 310 309 310 312 312 312 313 313 313 313 313 313 312 312 311 311 311 313 316 320 321 322 323 323 324 325 325 326 327 327 328 328 329 328 327 328 326
314 314 315 314 310 312 315 313 312 314 312 312 313 313 312 312 315 316 314 312 314 318 321 318 314 320 322 314 310 312 312 312 314 313 314 317 317 317 316 314 312 311 311 311 313 315 307 300 305 309 309 311 312 312 313 313 313 314 313 314 314 313 313 312 311 311 310 312 315 318 320 321 322 323 324 325 326 326 327 327 327 327 327 326 326 325
316 315 314 314 314 315 313 308 307 311 313 313 313 314 313 313 315 317 320 318 312 312 316 316 314 315 316 313 311 311 311 312 316 316 315 315 315 316 317 317 317 314 311 310 310 308 300 298 304 307 308 310 311 312 313 313 313 313 312 313 314 314 313 312 311 310 310 311 313 315 317 319 320 322 323 324 324 325 325 325 325 325 325 325 324 323
315 315 314 313 314 317 315 309 307 308 310 312 314 314 313 313 317 324 329 323 315 314 313 312 314 314 312 314 312 310 311 313 316 316 314 315 317 317 321 323 321 316 314 314 312 305 297 298 302 303 305 308 309 311 312 312 313 312 310 312 312 312 311 310 310 309 309 311 313 315 316 318 319 321 322 322 323 323 323 323 322 322 323 323 322 321
317 315 314 314 315 318 318 315 313 311 310 314 317 314 313 316 318 319 319 315 313 318 317 314 316 314 312 315 313 310 313 317 319 314 310 315 319 321 325 325 320 319 320 320 318 313 307 304 302 301 304 307 308 311 311 311 312 310 309 311 311 311 310 309 309 309 310 312 314 315 317 318 319 320 321 321 321 321 321 322 321 320 321 321 319 320
319 315 313 315 316 317 316 315 316 314 311 314 318 315 313 315 313 313 315 314 313 316 315 314 315 313 311 312 310 310 313 317 317 313 309 312 316 319 323 322 320 327 334 333 327 322 316 310 301 298 302 305 307 310 310 309 311 309 307 309 311 311 311 310 310 310 312 314 315 316 317 317 318 319 320 320 320 321 321 320 320 319 319 319 318 319
319 314 312 315 315 314 315 316 317 316 313 314 315 313 312 311 311 315 319 316 314 314 314 313 313 315 314 312 313 316 316 317 317 314 315 318 319 321 320 318 322 332 339 336 330 325 323 320 307 297 300 304 305 307 308 308 309 308 306 309 311 312 311 311 311 311 313 315 315 316 317 317 318 319 319 318 319 320 319 317 317 317 318 318 318 317
320 314 313 315 314 315 320 319 317 315 314 314 314 313 312 311 311 315 316 313 313 315 314 313 312 314 313 313 318 322 320 318 316 316 319 320 321 321 318 321 330 339 343 339 337 339 339 338 322 301 296 302 304 305 306 306 307 307 306 308 310 311 312 312 311 312 313 314 315 315 316 317 318 318 318 317 317 316 316 316 316 316 316 316 316 315
316 314 314 314 313 318 321 318 316 315 314 313 314 313 311 311 312 313 314 313 313 314 314 315 315 314 312 311 315 321 322 318 315 316 316 315 316 316 317 326 334 336 339 341 345 348 343 348 339 309 296 300 302 302 305 305 306 306 305 306 308 310 312 312 312 313 312 313 314 314 315 316 316 315 315 315 315 314 315 315 314 314 314 313 313 313
313 314 314 312 313 316 316 314 313 315 315 314 314 313 312 311 311 312 313 312 312 313 313 316 318 315 312 313 314 316 318 317 314 313 312 312 315 316 321 329 329 325 328 332 338 344 342 347 335 305 295 299 300 300 304 305 306 307 305 306 307 309 311 311 312 312 312 312 312 313 314 314 314 314 313 312 313 312 312 313 312 312 312 312 311 310
312 314 313 313 313 311 311 313 313 313 315 315 313 313 312 312 311 311 312 312 313 313 311 313 315 313 313 317 317 313 311 312 313 313 312 313 316 319 321 324 322 321 323 324 327 333 337 342 330 304 296 300 299 300 302 304 305 306 305 306 307 308 310 311 311 311 312 312 312 312 312 312 312 312 312 312 312 312 312 312 312 311 311 310 308 306
312 313 311 312 313 309 309 313 314 313 314 313 313 313 313 312 311 311 311 312 312 312 312 312 313 312 313 316 316 312 312 315 316 315 315 315 317 320 320 319 319 319 318 317 318 321 325 333 330 311 299 299 300 301 302 303 304 304 304 305 306 307 309 310 310 311 310 311 311 311 311 311 310 310 310 311 311 311 311 311 310 310 308 307 304 301
315 315 312 312 314 310 308 311 314 315 314 312 313 313 311 311 312 311 312 312 311 312 312 312 312 314 315 314 313 313 315 316 316 315 316 315 315 317 315 315 315 313 313 314 314 315 318 316 311 305 301 302 303 303 304 304 304 305 306 306 305 306 308 309 310 310 310 310 310 310 311 311 311 310 310 310 310 310 309 309 309 308 305 303 300 297
317 316 313 314 315 312 309 311 314 315 314 313 313 313 311 311 312 312 312 311 310 310 311 311 312 315 316 313 313 314 314 313 311 311 312 313 313 313 312 312 313 313 313 312 310 312 312 304 300 300 302 303 304 304 305 305 304 305 306 305 304 305 306 308 309 309 309 309 308 309 309 309 309 309 309 309 309 308 308 307 306 304 301 298 295 292
314 314 315 316 315 312 311 313 315 314 312 313 316 316 312 310 311 312 312 311 310 310 311 311 311 312 313 312 312 313 312 311 313 314 313 312 312 311 311 312 312 313 312 311 311 313 308 300 298 301 302 303 304 305 304 304 304 303 303 303 303 303 304 306 307 307 308 308 307 307 307 307 307 307 307 307 307 306 305 304 302 300 297 294 292 290
311 312 316 315 312 311 312 313 314 314 313 314 317 315 312 310 310 311 312 312 311 310 311 311 310 310 311 310 311 313 312 311 315 316 313 312 312 310 310 311 310 311 311 308 309 309 302 298 300 302 302 304 304 304 304 304 304 303 301 302 302 302 303 304 305 306 306 306 306 306 306 306 305 304 305 305 304 304 302 300 298 296 294 291 289 289
310 312 313 312 310 312 314 314 314 314 313 312 313 312 310 309 310 311 312 312 310 309 309 309 309 310 310 310 311 314 313 311 313 312 311 314 315 310 308 308 307 307 306 303 302 302 300 300 302 302 303 304 304 304 305 304 303 303 301 300 300 301 301 302 303 305 304 304 305 305 305 305 304 304 304 303 302 301 299 297 295 293 291 289 288 288
311 312 312 312 311 313 315 315 314 314 312 311 314 314 311 310 311 311 311 312 311 309 308 308 309 309 309 310 312 313 311 311 311 310 311 315 315 310 309 307 302 299 301 300 299 300 301 301 302 302 302 303 304 304 304 303 303 302 300 299 299 299 300 301 301 302 302 302 304 304 305 305 304 304 303 302 301 299 297 295 293 291 289 288 288 287
312 313 313 313 311 311 314 313 312 313 311 312 317 316 312 312 312 311 312 313 311 310 309 308 309 309 309 311 312 312 311 312 312 309 310 312 312 310 312 311 304 297 298 300 300 300 302 301 301 301 302 302 303 303 303 303 302 301 299 299 298 298 298 299 299 299 300 302 302 303 304 304 304 304 303 302 301 299 297 294 291 289 288 288 287 287
312 311 312 313 310 310 312 312 312 312 311 314 317 313 309 310 311 313 314 313 312 314 312 309 309 309 310 312 312 310 311 312 310 309 311 313 312 310 309 310 308 301 298 300 301 301 302 301 300 301 301 302 303 303 303 302 301 300 300 299 297 298 298 299 299 299 300 300 301 302 303 303 303 303 302 302 300 298 295 292 290 288 287 287 287 287
311 310 310 311 310 310 311 312 313 312 312 317 316 309 307 310 311 313 314 314 318 320 313 309 310 309 309 310 309 308 309 310 309 315 320 317 314 313 306 300 300 299 298 300 301 300 301 301 300 301 301 302 302 302 302 302 301 300 300 298 298 299 300 300 300 299 299 299 299 300 301 301 301 301 300 300 298 295 292 290 288 287 286 286 286 286
311 311 311 311 310 311 312 312 313 313 313 315 311 305 307 312 312 313 314 315 322 324 314 307 309 310 308 308 307 307 309 308 307 313 318 317 318 321 311 299 298 299 298 299 300 301 301 301 300 300 301 301 302 302 301 301 301 300 299 298 299 301 301 299 298 298 298 298 298 298 299 299 299 299 298 297 295 292 289 288 287 286 286 285 285 285
311 311 311 311 310 313 313 311 312 314 311 310 308 306 309 315 316 316 316 313 314 319 316 309 308 310 310 309 308 308 309 309 308 310 311 312 316 318 312 303 301 300 298 298 301 301 301 301 300 300 301 300 301 301 301 300 301 300 299 299 301 301 299 297 297 297 296 296 296 296 297 297 297 296 295 295 293 291 289 287 286 286 285 285 285 284
311 311 311 311 310 311 312 309 310 314 310 307 310 309 310 316 317 314 313 311 310 312 314 314 313 310 309 310 309 307 308 310 312 312 312 313 315 316 313 306 299 295 296 298 300 301 301 302 301 300 300 300 300 300 300 300 300 299 299 300 300 299 297 297 296 296 295 295 295 295 295 295 295 294 293 292 291 290 288 287 286 285 285 284 284 284
311 310 313 314 310 310 312 311 312 315 309 306 311 312 309 313 314 311 311 313 314 310 310 316 318 310 306 308 309 307 308 311 312 313 316 319 317 314 311 305 297 295 296 297 297 299 300 301 300 300 300 300 300 299 299 299 299 299 299 300 299 298 297 296 295 295 295 294 294 294 293 293 292 292 291 290 290 288 287 286 285 284 284 284 283 283
311 311 313 316 312 310 312 312 312 314 310 308 313 315 310 310 313 312 310 312 314 312 309 315 319 314 306 307 310 311 312 312 314 317 319 321 318 310 305 301 294 293 295 296 296 298 299 299 299 299 299 299 299 299 298 298 298 299 299 299 298 297 297 296 295 294 294 293 293 293 292 291 290 289 289 288 288 288 287 286 285 284 283 283 283 283
311 311 312 316 314 310 312 313 312 312 311 309 311 312 308 308 311 312 311 311 314 313 310 313 316 312 305 306 314 321 319 315 320 325 321 316 315 311 308 303 294 290 293 295 295 296 297 297 298 297 298 298 298 297 298 297 297 298 297 297 297 296 296 295 295 294 293 293 292 291 290 290 289 288 287 287 286 286 285 285 284 283 282 282 282 281
311 311 313 316 313 310 311 312 310 309 309 307 308 311 311 310 311 313 315 315 313 309 306 309 311 308 307 308 312 321 325 318 319 324 320 311 307 306 303 298 291 289 292 293 293 295 296 296 296 296 296 297 296 296 297 297 297 296 295 295 295 295 295 295 294 293 293 292 291 291 290 289 288 288 287 286 285 285 284 284 283 283 283 283 283 282
309 309 311 314 311 309 310 310 308 308 308 306 307 311 313 313 313 315 313 310 311 310 308 308 306 304 307 308 307 313 323 317 309 311 314 310 308 304 297 291 289 290 292 292 293 294 295 295 295 295 295 296 296 296 296 296 295 295 294 294 294 293 294 294 293 293 292 291 290 290 289 288 288 287 287 286 285 285 284 284 284 283 283 283 283 283
309 310 311 311 311 310 310 309 308 310 311 310 309 310 312 312 312 312 310 308 312 313 310 309 305 299 300 303 302 308 319 316 305 306 311 310 305 300 291 286 287 290 291 291 293 293 293 294 295 295 295 295 295 296 295 294 294 293 293 293 293 293 293 293 292 292 291 290 290 289 288 287 287 286 286 285 284 284 283 283 283 283 282 283 282 282
310 310 309 310 311 310 310 310 310 311 312 311 309 308 308 309 310 311 310 308 309 309 307 310 312 307 303 300 296 300 315 317 304 302 308 304 295 291 289 288 289 290 290 291 292 292 292 293 293 293 294 294 294 294 294 293 293 292 292 292 292 291 292 292 292 291 290 290 289 288 288 287 286 285 284 284 283 283 282 282 282 282 282 282 282 281
Wind_Speed
4 5 5 6 7 9 10 8 6 5 7 8 5 4 4 2 2 3 3 3 1 1 5 4 5 9 10 11 8 3 1 3 5 6 6 7 6 6 6 7 9 9 12 16 17 17 19 23 24 26 28 29 29 29 29 30 32 33 33 33 34 34 33 33 33 32 31 31 31 30 31 31 29 28 27 26 26 25 25 23 22 23 22 21 20 19
3 7 7 6 8 10 8 7 7 7 7 7 6 4 4 3 2 4 3 4 1 2 4 2 3 9 10 12 9 3 2 6 7 7 8 8 7 6 7 10 10 8 10 13 14 16 19 21 23 25 26 28 29 31 33 34 35 35 34 35 36 36 35 35 35 34 33 33 32 31 31 30 29 29 28 28 28 27 26 25 24 24 23 22 21 20
5 6 6 7 8 8 6 7 9 7 7 6 4 4 3 2 2 4 3 3 1 2 4 2 1 8 10 12 10 6 7 8 8 9 9 8 7 7 8 10 9 7 9 10 12 16 21 23 24 24 26 29 32 34 35 35 35 35 35 37 37 36 37 37 37 36 36 35 34 32 31 30 29 29 29 28 28 27 27 27 26 25 23 22 22 21
5 5 7 8 8 10 7 6 8 6 5 4 4 5 3 2 2 3 2 3 1 2 2 1 3 7 8 9 9 7 7 7 7 8 8 7 8 9 8 7 8 9 11 11 10 12 18 22 23 25 28 30 32 33 33 34 36 37 38 39 39 38 38 38 38 38 37 36 34 33 32 30 29 28 28 27 27 28 28 28 27 26 25 24 22 22
3 3 7 8 7 11 8 5 7 5 3 2 4 5 3 3 3 3 2 4 3 2 1 2 4 5 5 8 10 5 1 5 6 5 8 7 8 8 5 6 8 10 11 11 11 10 13 19 23 27 30 30 31 33 34 35 38 40 41 41 40 39 39 39 40 39 38 35 34 32 29 27 26 26 26 26 27 28 28 27 27 27 26 25 25 23
2 2 7 9 7 9 9 6 7 6 5 2 3 6 6 7 5 3 2 5 3 3 2 2 3 5 4 6 9 5 3 6 4 4 8 9 7 6 6 9 10 10 10 10 11 9 11 18 23 26 28 29 31 34 36 36 38 40 41 40 40 40 40 40 40 39 38 37 35 33 31 29 27 26 27 28 29 28 27 26 25 25 24 23 24 23
2 3 7 10 8 8 8 6 6 7 6 2 5 9 8 7 7 4 1 2 0 3 1 2 2 5 5 5 7 4 4 8 6 5 9 9 7 7 8 10 9 10 10 9 11 10 12 17 20 23 28 31 34 36 35 35 36 37 38 38 39 40 40 40 39 39 38 38 36 35 35 33 31 30 30 30 30 28 27 25 24 23 22 21 22 23
5 7 6 9 9 8 7 6 8 10 7 3 6 11 9 7 7 5 3 2 3 2 2 3 2 3 6 6 6 2 4 9 8 7 8 8 9 9 9 10 10 11 10 8 10 10 12 17 20 24 28 31 34 34 33 33 34 35 36 38 38 39 39 39 38 38 39 39 38 37 36 35 34 33 32 31 30 29 28 26 25 24 22 22 22 23
5 10 11 13 10 7 7 6 10 12 6 4 5 9 8 7 6 4 4 3 1 2 3 2 2 2 6 6 3 2 5 10 9 9 9 9 10 10 10 11 11 11 9 8 9 10 12 17 21 24 25 27 30 30 30 32 33 34 35 36 36 37 38 38 37 38 39 39 39 38 37 35 35 34 33 31 28 28 26 26 25 24 23 23 23 24
2 8 11 13 9 6 5 5 10 12 4 2 6 7 4 3 4 3 3 2 1 1 4 2 2 2 7 6 2 2 4 7 8 8 9 9 9 10 9 10 10 8 6 6 8 10 13 17 19 21 23 25 27 27 28 30 31 32 33 34 35 36 37 37 37 38 38 39 39 39 38 36 35 33 32 30 27 26 25 25 25 24 24 23 23 24
2 0 4 5 5 5 5 4 6 9 6 6 7 7 6 4 4 3 1 2 1 3 3 3 4 3 6 5 4 5 5 5 7 7 7 9 9 10 10 9 8 6 5 5 5 9 14 17 18 18 21 25 25 24 25 28 30 31 32 33 35 36 36 36 36 37 38 39 39 39 39 37 36 34 32 31 28 26 26 26 26 25 24 23 23 22
3 3 2 1 2 5 7 4 2 4 8 7 4 5 4 2 3 2 3 2 3 4 3 5 3 6 7 6 3 5 5 4 7 7 9 10 10 10 8 6 6 5 5 5 5 7 10 12 14 16 20 22 22 22 24 27 28 30 31 33 34 35 36 36 36 37 38 38 39 39 38 37 37 35 33 33 31 30 29 28 27 26 24 23 22 20
3 1 2 1 1 4 8 5 4 4 5 5 4 6 5 1 1 2 2 1 4 4 3 4 2 4 9 6 4 8 8 7 9 8 10 10 9 10 8 5 5 4 5 5 5 6 6 7 10 14 18 20 20 22 24 26 27 29 30 31 32 34 34 34 35 36 37 37 38 38 38 37 36 35 35 34 33 33 32 31 29 27 26 24 22 21
1 4 2 3 1 3 8 9 4 2 6 6 6 7 6 5 4 6 4 2 4 4 2 2 2 4 6 3 6 12 12 10 8 8 9 9 10 11 8 6 6 6 7 6 6 6 6 7 10 13 15 17 19 21 23 24 26 27 28 29 31 32 31 32 34 34 35 36 37 37 37 37 36 35 35 35 34 34 33 32 31 29 28 27 24 24
7 3 5 7 3 5 10 9 6 7 7 8 6 5 4 5 5 6 5 3 4 2 1 1 2 3 2 2 6 9 9 9 7 6 7 8 9 8 8 8 8 9 8 6 6 7 7 9 12 12 12 14 16 18 19 21 22 24 26 27 29 30 30 30 32 33 34 35 36 36 36 36 36 35 35 36 35 34 33 32 32 31 29 28 25 24
8 2 2 1 1 8 10 5 4 8 6 3 2 3 3 4 4 3 4 4 3 2 1 3 4 4 3 6 8 6 5 6 7 7 7 8 8 5 7 9 8 9 8 6 6 6 7 10 11 10 8 9 11 13 16 18 19 21 22 24 26 27 28 28 29 31 33 34 34 35 35 35 35 35 35 35 34 34 33 32 32 31 29 27 25 24
5 1 3 3 1 7 8 7 6 7 6 2 2 5 4 3 7 5 1 1 3 2 3 2 4 5 3 7 9 5 6 8 8 7 7 8 7 5 7 9 8 7 6 6 6 5 6 8 9 9 7 7 8 9 11 13 15 17 18 20 22 24 25 27 28 30 31 32 33 33 34 34 34 35 35 35 34 33 33 31 31 30 28 27 25 24
5 3 2 2 3 3 1 6 4 1 4 5 6 7 3 3 3 4 2 2 3 3 4 2 5 5 3 5 6 4 5 10 10 7 5 6 6 5 8 8 7 7 6 6 6 5 6 8 8 8 8 7 7 7 7 9 11 13 14 16 19 21 23 25 26 28 29 30 31 32 33 33 34 34 34 34 33 32 31 31 30 29 28 27 26 26
5 4 3 1 4 1 2 5 4 2 2 4 5 4 4 3 2 2 3 2 2 3 4 3 4 4 6 6 4 3 3 7 10 8 6 7 5 5 8 8 6 6 5 5 5 4 5 7 9 8 7 7 7 6 7 8 9 10 11 13 15 17 19 22 24 26 27 29 30 31 31 32 33 33 33 32 32 31 31 31 30 29 29 28 28 28
4 5 1 2 1 1 1 4 6 4 2 2 1 2 1 2 3 3 3 3 3 3 3 3 4 3 6 6 5 7 8 9 11 11 9 8 5 5 6 7 7 7 5 5 5 4 4 6 8 7 6 5 5 6 6 7 8 9 10 11 13 14 16 18 20 23 25 27 28 29 29 30 31 31 31 31 31 31 31 31 31 31 31 31 30 30
2 4 3 1 1 2 3 4 8 10 6 4 5 6 4 1 1 2 2 2 4 4 3 2 4 5 5 4 9 11 10 11 12 10 9 7 5 6 6 6 6 7 6 6 5 5 4 6 7 5 6 5 5 6 6 7 8 8 9 10 12 13 15 16 18 19 22 24 26 27 28 28 28 29 29 30 30 31 31 31 32 32 32 32 31 31
2 3 6 4 2 4 3 3 5 8 7 7 6 7 8 5 4 4 3 1 2 3 4 3 5 8 4 4 7 9 9 11 9 6 6 6 6 7 6 6 6 6 7 6 5 5 4 6 6 6 7 7 7 8 8 9 9 9 10 10 11 12 14 16 17 18 19 20 22 25 26 26 27 27 28 29 30 31 31 32 33 33 33 33 32 31
2 5 5 3 3 4 3 2 2 3 3 3 3 4 6 5 4 6 5 3 1 1 2 3 3 7 4 6 7 7 8 7 5 5 5 6 6 7 7 6 6 5 6 6 5 4 5 6 6 6 8 9 10 11 11 10 10 10 10 10 9 11 12 13 14 15 16 16 17 19 21 23 24 25 27 28 30 31 31 32 33 33 33 33 33 33
3 4 5 3 0 3 4 3 2 1 1 3 4 2 5 5 4 5 4 4 3 3 3 2 4 6 4 3 3 4 5 6 5 5 5 6 5 7 7 6 6 5 5 5 4 3 5 6 6 7 10 11 12 12 12 11 11 10 10 9 8 9 10 10 11 11 12 12 13 15 17 19 21 23 25 27 29 30 30 30 31 32 31 32 34 34
3 4 5 6 3 3 4 4 3 3 3 4 3 3 5 6 6 4 2 4 2 7 8 5 6 6 4 3 2 4 6 7 9 5 5 5 6 6 6 6 5 5 4 4 4 3 4 5 6 9 11 13 13 14 13 13 12 11 10 8 8 8 8 7 7 8 9 11 13 14 16 18 20 22 24 26 27 27 28 27 28 30 31 33 35 33
3 5 6 8 8 7 7 6 5 5 3 1 3 8 10 11 11 7 3 4 6 7 9 9 8 4 4 3 1 4 5 7 9 3 2 5 6 6 6 6 6 5 4 5 4 4 4 4 6 9 12 14 15 15 15 15 14 12 10 8 8 8 7 6 6 7 9 11 13 15 16 18 20 21 23 25 25 26 27 28 29 31 32 33 33 32
3 3 6 9 12 11 9 6 5 9 9 7 9 12 12 10 12 8 5 5 8 4 6 13 12 6 6 4 3 7 6 7 8 4 3 5 6 5 6 6 6 6 5 5 4 4 4 5 6 9 13 15 16 16 16 16 14 13 11 10 9 10 8 7 7 9 11 13 15 16 17 18 20 20 22 24 26 27 27 28 30 32 32 32 32 31
4 5 9 11 11 5 3 3 8 13 14 14 12 12 11 10 12 12 10 12 8 6 8 14 11 12 12 7 7 8 5 6 7 5 5 6 4 4 5 7 7 6 5 5 5 5 5 6 6 8 12 15 16 17 17 16 15 14 13 12 11 11 11 10 9 11 13 15 17 18 19 19 20 21 21 23 25 26 26 27 29 30 32 32 31 30
5 7 10 11 6 3 5 3 10 12 10 10 12 14 14 14 16 18 20 17 11 9 15 9 11 17 15 8 8 8 6 7 7 5 4 3 2 4 6 7 6 6 6 6 5 5 6 7 6 8 12 15 16 17 17 17 17 16 15 15 13 13 13 13 12 12 14 16 17 18 19 20 20 22 22 23 24 26 27 29 30 30 31 30 30 29
5 5 6 8 4 5 6 1 6 9 7 7 10 13 13 16 19 22 25 20 12 15 19 6 6 16 11 8 11 9 6 6 3 1 2 3 4 6 7 7 6 7 8 7 7 7 6 7 7 8 11 13 15 17 18 19 19 19 19 18 17 16 15 16 16 15 15 16 18 19 20 21 21 21 23 23 25 26 27 28 28 27 27 28 28 29
4 4 3 6 5 4 5 4 4 7 8 8 9 10 12 16 20 22 22 13 8 17 20 8 10 15 6 8 9 6 2 2 3 4 5 5 7 7 7 8 8 8 8 8 8 8 7 8 8 8 11 14 16 17 18 20 20 21 21 21 19 18 17 17 18 19 18 18 18 19 20 22 23 23 24 24 25 26 26 26 25 25 26 27 29 31
3 2 2 6 6 2 2 3 6 6 6 5 6 12 17 18 17 17 14 10 12 18 17 10 13 13 5 7 6 3 3 5 6 7 7 7 8 7 8 10 9 9 9 9 9 8 8 9 8 8 12 15 16 16 18 19 20 22 23 23 21 20 19 19 19 20 20 20 20 20 20 20 21 23 25 25 26 26 26 25 24 24 27 29 32 34
6 5 2 6 7 4 1 4 7 7 5 2 10 18 21 18 14 12 12 15 19 18 13 12 14 9 5 8 8 6 7 9 9 9 8 8 9 8 9 10 10 10 10 10 10 9 7 8 9 12 15 16 15 16 17 18 20 22 23 22 21 21 21 22 21 21 22 22 23 24 23 23 23 23 23 24 24 25 25 24 24 26 30 32 34 36
8 8 5 5 5 3 4 5 7 5 5 10 12 15 20 19 19 20 20 23 23 18 14 13 11 4 6 9 11 10 11 11 10 10 9 8 8 9 10 11 11 11 11 10 10 8 7 8 11 13 14 13 14 14 14 16 19 20 20 20 21 22 23 24 24 23 23 24 24 25 25 26 26 26 25 25 25 25 25 25 27 29 32 34 36 38
10 9 5 3 4 3 4 5 6 7 13 10 3 10 19 24 27 26 25 23 19 17 15 16 16 12 9 9 9 9 10 9 7 8 10 9 9 10 10 11 12 12 12 10 8 8 8 9 9 9 9 10 11 11 12 14 16 17 18 19 20 22 24 24 25 25 25 25 24 24 25 25 26 26 26 27 26 26 26 28 30 32 34 35 38 38
13 9 4 3 4 4 3 6 8 8 8 5 2 5 13 18 18 16 17 17 14 14 16 21 23 20 13 8 4 3 4 4 5 8 10 10 9 10 11 12 12 11 10 9 9 10 10 9 8 8 8 8 8 9 11 12 13 16 18 18 20 22 23 24 26 27 27 26 25 25 25 25 25 25 25 25 26 26 28 30 32 33 35 36 37 37
14 12 6 3 3 3 4 6 5 5 7 11 10 6 8 9 11 11 11 14 14 15 17 20 21 18 14 8 5 4 3 4 7 10 9 9 11 12 12 12 10 9 10 12 12 12 10 9 9 9 9 8 8 9 10 10 12 15 18 18 20 22 23 25 28 29 28 27 27 27 26 26 26 25 25 26 27 28 30 31 32 34 36 37 37 37
7 10 11 8 3 3 5 3 3 3 10 14 7 6 9 9 10 12 7 12 15 18 17 17 17 17 13 7 8 5 4 1 8 12 9 10 12 11 10 11 10 11 14 15 13 12 11 11 10 10 10 9 9 9 9 10 12 15 17 19 20 21 24 27 28 27 25 26 27 27 27 27 27 27 27 28 29 30 31 32 33 35 36 37 38 37
4 3 7 8 4 4 7 6 6 9 14 9 5 8 11 13 13 13 4 12 14 14 15 16 18 18 11 8 9 8 5 4 11 12 10 10 9 8 9 10 11 14 16 14 12 12 11 10 9 9 10 10 10 9 8 10 12 14 17 18 19 21 24 26 26 24 24 26 26 26 26 27 28 28 29 30 31 32 33 34 35 36 36 37 37 37
5 3 4 6 6 7 9 7 5 7 9 6 7 9 11 15 16 14 3 12 6 12 16 18 18 16 10 11 11 10 9 11 12 10 7 6 6 7 10 10 9 10 9 8 8 8 8 7 8 8 8 9 8 7 8 10 12 15 17 17 18 22 24 25 24 23 24 25 25 26 27 27 28 29 30 31 32 33 34 35 36 36 36 35 36 36
4 2 3 7 7 7 9 7 5 6 7 6 7 10 14 15 12 9 10 8 6 11 14 16 17 17 14 14 12 10 11 13 10 2 2 4 4 7 8 7 6 5 4 5 5 6 6 7 7 7 7 6 6 6 8 11 13 16 17 17 19 22 23 22 22 21 22 23 24 26 26 27 29 29 30 30 31 32 33 34 35 36 36 35 35 35
6 5 4 6 6 5 5 5 4 7 6 7 8 9 12 11 6 9 8 2 5 9 10 12 15 14 11 12 11 10 10 12 8 3 2 4 5 6 5 4 3 3 4 4 4 4 5 5 5 5 5 4 5 7 8 11 14 15 16 18 20 19 18 18 19 19 19 21 23 24 25 27 28 29 29 30 31 32 32 33 34 35 36 35 35 35
10 9 7 7 6 3 3 5 5 8 6 14 16 7 6 7 7 7 3 1 2 7 9 9 9 8 9 9 11 11 11 9 8 7 6 6 6 6 5 4 4 5 6 5 4 4 4 4 4 4 4 4 4 6 8 12 14 15 16 18 17 14 14 15 16 16 17 19 21 23 24 26 27 29 30 31 32 34 34 35 35 36 36 36 36 35
9 10 9 9 8 7 8 10 8 4 7 17 18 10 9 8 5 5 7 4 2 3 7 7 6 7 10 11 11 11 9 7 7 8 6 6 7 7 6 5 4 5 6 6 6 5 4 4 4 3 4 5 4 5 9 12 13 15 16 16 13 11 12 13 13 14 16 18 20 22 23 25 27 28 30 31 33 34 36 37 37 37 37 37 37 37
13 12 8 7 9 8 8 10 5 2 6 9 8 8 13 12 6 4 8 7 4 5 5 5 7 8 9 10 10 9 9 8 8 7 6 7 7 6 6 6 5 5 5 6 6 4 4 4 4 3 4 5 4 6 8 11 13 15 15 13 11 11 11 11 12 14 16 17 19 21 22 24 26 28 29 31 33 35 37 38 38 38 38 38 38 38
7 7 5 4 4 3 5 6 4 1 4 7 3 2 10 13 7 4 6 6 6 7 6 6 9 11 10 9 8 7 8 9 8 7 7 6 5 4 4 4 2 2 4 5 5 4 4 4 4 3 3 3 3 5 7 9 12 14 13 11 10 10 10 10 12 14 15 17 19 20 22 23 25 27 28 30 32 34 36 38 39 38 38 38 38 37
3 5 4 3 6 6 8 9 8 5 6 9 6 2 2 4 3 4 5 5 5 7 7 5 7 10 10 10 10 9 9 9 9 8 8 5 4 3 1 2 3 3 4 5 5 4 4 4 4 2 2 2 3 4 5 8 11 12 12 11 9 10 10 10 12 13 15 17 18 19 21 23 24 26 27 28 31 32 33 35 36 36 36 37 37 34
3 5 5 4 8 10 9 7 5 3 3 5 4 2 2 3 4 4 5 4 4 6 5 3 5 8 9 9 10 9 8 8 9 8 5 3 1 1 3 4 5 6 6 6 6 6 5 5 4 2 1 1 1 3 5 6 8 11 12 10 9 10 10 10 12 13 14 16 17 19 20 22 24 25 27 28 30 32 33 34 36 36 38 40 40 38
5 7 8 6 7 5 6 2 5 4 2 2 5 6 7 8 9 7 5 4 4 6 6 4 3 4 7 7 8 8 7 7 7 6 5 4 3 4 4 6 8 9 8 7 7 6 6 5 4 3 2 1 0 2 4 5 7 9 10 9 9 9 10 10 11 13 14 15 17 19 20 22 24 26 27 29 30 32 33 35 36 37 38 39 40 39
8 9 8 6 6 9 8 7 9 7 4 7 11 12 11 9 9 8 6 5 5 6 8 6 4 4 3 3 5 7 7 6 5 6 5 4 4 4 6 8 10 10 9 9 7 6 6 5 4 3 3 1 1 2 4 4 6 7 7 8 8 9 10 10 11 12 14 16 17 19 21 23 24 26 27 28 30 31 31 31 33 35 35 35 36 35
10 12 12 11 12 13 10 11 12 9 7 8 11 14 12 8 7 9 9 8 6 6 8 8 7 5 3 2 2 5 7 6 6 7 6 5 4 6 7 9 10 10 10 9 8 7 6 5 4 4 3 2 0 1 3 3 4 5 6 7 7 9 10 11 11 13 14 16 18 19 21 22 24 25 26 27 28 29 29 29 29 31 33 34 33 33
Wind_Direction
156 152 181 178 173 183 185 182 162 144 147 144 135 126 127 139 269 263 265 294 130 166 272 242 236 257 259 265 262 243 191 223 247 258 249 246 240 233 231 235 236 233 244 251 249 243 239 236 234 232 230 229 228 230 230 231 232 232 232 231 233 235 234 233 232 231 230 229 229 230 233 235 237 239 241 243 245 247 248 248 248 247 245 244 242 242
172 180 187 176 170 178 177 155 137 132 138 138 141 144 126 126 246 256 252 299 347 182 270 319 260 261 262 265 260 207 223 251 234 234 247 242 237 238 236 239 239 240 254 257 248 240 237 235 234 232 230 227 227 228 228 230 231 232 231 230 233 234 232 232 232 230 230 230 229 229 231 234 236 239 241 243 246 247 246 246 246 246 245 246 244 243
190 192 172 166 162 156 150 145 143 142 142 139 132 141 161 171 248 268 263 308 8 185 264 360 301 264 263 265 261 214 219 247 231 222 237 233 229 233 231 237 241 245 256 255 244 235 233 233 231 229 228 227 229 230 229 229 230 231 230 231 231 231 231 233 232 231 231 232 233 233 234 235 236 240 243 245 248 248 246 246 245 245 244 244 244 244
181 190 169 163 154 147 153 157 143 132 128 128 126 141 184 192 205 238 261 306 291 183 257 322 303 276 269 272 268 233 220 251 251 237 242 234 226 231 234 238 234 234 244 250 246 233 229 230 227 224 226 228 228 229 227 227 229 229 230 231 230 229 230 232 232 233 234 234 236 237 239 239 240 243 246 247 248 247 246 246 246 246 245 242 242 243
158 183 154 138 145 148 149 159 149 142 135 133 149 152 166 182 190 212 272 322 323 9 12 331 309 279 255 259 261 260 269 269 275 272 264 252 239 245 268 260 235 230 237 243 245 233 221 224 225 224 226 227 225 226 226 226 228 229 230 230 229 229 229 231 232 233 232 232 233 234 233 234 236 237 239 240 240 241 242 243 245 246 245 242 237 238
177 204 144 132 147 150 149 170 170 166 167 189 199 173 174 178 176 207 313 4 11 344 358 8 298 274 274 263 252 271 313 266 281 298 266 258 251 247 255 251 241 239 239 240 246 239 221 224 227 227 226 224 224 227 229 230 231 230 230 230 229 229 229 230 230 230 229 227 227 225 223 222 223 224 227 231 234 235 237 240 243 243 243 242 238 239
175 171 145 144 149 146 153 176 182 167 154 214 210 179 175 163 155 182 236 43 101 249 290 79 228 269 304 285 257 277 287 266 273 279 264 262 259 240 239 245 241 242 241 239 247 244 230 227 226 228 226 224 227 232 233 232 232 230 229 230 230 230 229 229 228 227 226 224 223 222 222 221 221 222 227 232 235 236 238 239 239 239 239 239 240 241
136 134 142 146 143 152 170 181 188 171 155 231 205 169 167 159 167 176 136 162 225 260 329 44 117 267 288 266 261 305 290 277 275 269 265 261 257 245 240 245 240 239 236 233 243 241 235 231 228 230 230 228 231 235 233 232 231 231 231 231 230 230 229 228 227 226 224 222 220 221 222 223 223 224 229 232 234 236 237 236 236 236 237 237 238 239
129 159 173 163 159 182 184 169 172 163 158 240 185 156 169 168 170 153 125 199 258 352 314 359 99 256 273 264 293 327 253 263 268 262 259 254 253 249 243 245 243 243 237 229 241 244 241 239 237 240 240 239 239 237 234 234 234 233 233 231 230 229 229 228 226 225 224 223 221 221 221 222 224 227 231 233 234 233 232 232 232 234 235 235 236 237
179 186 179 164 170 189 161 133 158 159 156 196 136 108 97 107 101 101 135 179 47 310 243 214 129 256 273 257 255 295 243 247 258 261 258 252 253 252 250 250 248 252 248 234 241 248 250 249 248 250 250 247 245 241 238 237 236 234 233 231 229 229 228 228 227 225 224 223 222 222 221 222 224 226 229 230 230 228 226 226 227 228 230 233 237 241
289 66 155 160 178 172 126 98 156 159 139 128 118 84 66 57 57 70 91 109 118 266 246 219 161 149 278 261 188 214 221 205 226 251 260 256 257 254 250 252 256 262 259 250 255 262 264 263 259 254 250 248 246 242 239 236 234 233 232 230 229 230 229 227 226 225 225 224 222 222 222 223 224 224 225 225 224 223 221 221 223 226 231 235 237 239
36 88 164 218 187 138 109 79 36 119 138 134 120 115 107 38 39 44 3 55 213 253 253 248 187 154 237 253 183 229 243 211 215 228 246 248 252 256 253 253 264 266 262 268 271 272 278 277 267 253 246 246 243 239 236 234 232 231 230 229 228 229 228 226 226 225 225 224 223 224 224 224 225 224 223 222 222 221 220 221 224 226 228 232 232 228
58 143 213 330 274 154 127 115 30 45 153 150 122 138 138 84 91 207 277 205 232 252 227 230 201 197 242 251 237 251 253 240 225 220 238 249 255 264 268 269 276 273 262 267 268 268 276 276 268 255 246 243 239 235 234 232 230 229 228 227 227 228 227 226 226 225 225 225 224 224 224 225 226 225 224 224 223 223 223 223 223 224 224 226 225 218
113 306 238 144 231 194 152 149 141 155 182 178 168 165 159 146 166 204 208 209 247 255 246 217 199 256 281 278 232 239 245 248 241 234 241 248 257 267 280 288 286 280 268 259 260 264 263 258 259 255 250 245 240 235 233 230 228 227 227 226 226 229 229 227 226 226 226 226 226 226 226 226 226 225 225 226 226 225 225 224 224 225 225 225 225 218
167 248 208 173 195 191 171 169 157 146 164 186 182 163 169 169 174 195 191 194 225 233 278 264 208 214 226 256 232 226 246 268 274 265 254 252 258 269 288 291 280 273 266 253 251 255 253 253 256 256 253 249 243 238 233 230 226 224 225 225 226 228 228 227 227 226 226 227 227 227 227 227 227 226 227 228 229 229 228 227 225 226 226 227 228 222
165 215 240 189 178 167 167 175 122 117 145 199 160 138 212 191 145 148 180 175 165 165 231 220 228 218 205 274 270 236 248 275 270 268 270 268 267 269 276 274 266 264 264 256 256 262 258 255 254 251 247 243 239 235 232 229 226 224 225 226 227 229 230 229 229 228 228 229 229 228 228 228 227 228 228 228 229 230 230 230 228 228 228 229 228 220
154 80 340 18 88 167 167 170 159 151 157 144 163 192 208 151 117 116 188 70 95 186 242 218 251 286 309 286 280 272 276 281 273 269 270 271 278 283 269 264 264 268 271 269 263 264 266 265 258 248 234 224 222 223 226 226 226 227 229 229 230 231 230 230 230 231 231 230 230 229 229 229 228 228 228 229 229 230 230 231 230 230 229 227 223 215
149 99 341 54 134 212 193 137 142 171 141 141 190 197 144 98 101 110 152 5 64 212 267 265 245 273 279 265 300 336 276 267 275 280 275 275 282 284 271 266 267 265 268 275 271 266 267 263 256 245 229 218 214 212 215 217 220 224 227 229 231 232 232 232 232 232 233 232 231 231 230 229 229 229 229 230 230 230 229 228 227 227 226 223 218 212
131 101 320 328 143 238 359 116 129 352 103 154 199 192 132 163 205 141 158 169 161 222 280 300 279 258 213 228 295 337 253 260 281 292 295 289 281 276 279 281 285 281 278 283 278 269 261 253 247 238 228 221 215 213 213 213 217 221 225 228 231 234 235 236 235 234 234 233 233 233 233 231 230 230 229 229 229 229 228 226 225 224 223 220 216 211
117 111 243 287 154 154 104 157 181 179 106 73 156 185 157 150 172 170 164 158 166 201 250 304 320 270 222 207 206 234 247 255 267 276 279 276 260 253 273 289 300 300 294 289 276 265 258 257 252 242 236 230 219 220 219 219 223 223 227 231 232 235 236 236 236 235 235 234 234 234 233 233 231 230 229 229 228 228 226 226 225 222 221 217 213 210
98 110 151 194 4 170 187 209 189 172 164 159 162 183 197 163 123 155 159 130 135 162 198 277 291 262 247 198 188 208 229 237 247 258 263 271 270 261 264 273 287 295 292 288 278 267 261 261 258 246 239 231 222 226 225 227 232 229 232 236 237 239 238 237 236 235 235 235 234 233 232 232 231 229 229 228 227 227 226 225 223 221 220 214 210 208
109 109 138 144 160 185 223 256 186 174 186 179 174 192 189 170 138 150 201 221 98 157 177 178 262 266 245 197 200 204 212 224 226 222 242 270 283 280 275 265 266 280 286 286 283 276 273 269 257 236 229 226 222 226 226 229 235 237 242 243 244 245 244 243 241 237 235 234 234 233 231 231 230 228 227 226 225 224 223 222 219 218 216 210 206 203
111 104 114 134 189 204 254 292 191 195 199 170 198 201 165 158 148 151 197 212 121 204 153 119 269 272 230 194 204 212 222 233 208 182 223 255 263 270 278 275 270 275 280 284 284 276 279 280 265 239 230 228 226 228 229 233 237 240 246 248 252 255 254 251 247 243 241 237 236 235 232 230 228 226 225 223 221 220 219 218 216 213 211 206 201 197
128 114 104 101 209 301 323 343 358 356 132 191 235 179 140 174 165 145 180 170 159 202 146 107 263 263 260 239 229 245 273 283 250 214 228 255 268 270 273 278 278 278 286 288 286 282 282 281 263 241 233 230 230 233 236 239 242 244 246 248 256 265 267 261 251 245 240 234 234 233 230 229 226 224 222 219 218 217 215 215 212 208 206 203 198 192
135 136 128 117 96 354 340 339 308 257 204 203 202 150 167 174 137 122 142 120 193 207 164 175 238 243 275 310 322 294 299 289 267 230 200 242 276 282 277 283 281 280 290 287 287 292 282 269 252 242 238 234 232 234 238 242 243 244 245 244 250 260 269 267 251 240 232 226 227 227 225 224 222 220 219 216 215 214 212 212 210 205 203 199 193 189
119 157 152 142 153 180 194 205 217 196 178 213 174 175 191 181 162 164 125 129 225 209 166 199 232 250 292 311 335 279 269 265 267 249 168 238 258 272 281 293 295 292 294 285 281 281 271 266 259 250 245 242 239 236 237 241 242 242 240 236 240 248 254 256 243 230 225 222 223 223 222 219 215 215 216 213 213 213 212 211 207 202 198 196 191 188
96 178 185 174 181 188 188 188 140 127 148 193 196 186 188 183 175 162 124 186 212 157 177 224 228 242 266 244 241 260 242 242 261 287 314 267 253 267 279 280 281 278 277 277 269 264 266 264 256 250 247 245 244 242 241 242 241 240 235 228 230 235 238 240 236 226 221 220 220 219 218 216 215 215 217 214 211 211 210 206 201 195 191 192 192 191
105 197 203 191 193 179 137 155 135 143 174 189 182 178 178 175 176 177 199 213 171 130 229 230 209 228 239 214 226 250 232 237 253 249 254 255 257 287 283 277 283 283 277 272 260 252 255 257 253 248 248 246 244 244 243 242 241 238 234 229 225 228 228 228 228 227 222 217 216 216 213 214 216 214 214 213 208 204 201 196 193 191 189 190 192 193
135 205 201 185 184 58 54 144 150 154 175 174 169 180 180 178 182 194 215 213 161 185 237 208 177 224 231 199 214 230 215 229 233 213 229 268 301 283 275 283 295 290 282 279 270 253 242 251 255 244 243 243 242 241 240 239 238 234 231 228 222 223 226 222 219 223 224 217 213 215 213 211 212 209 206 205 202 197 194 191 189 188 189 189 191 193
165 203 186 163 144 35 20 25 146 147 147 152 177 184 178 187 195 203 218 214 185 223 242 204 196 243 233 190 215 225 219 231 235 237 294 294 261 250 259 272 270 263 267 270 268 259 244 246 252 248 247 242 237 236 234 232 232 230 229 226 219 217 220 220 216 214 220 221 215 212 211 207 206 206 202 199 196 192 189 187 187 187 189 191 193 194
201 194 143 127 111 28 4 22 86 133 146 159 181 185 187 201 208 214 224 215 197 239 247 244 267 267 227 179 217 232 216 243 272 268 257 246 245 246 254 260 256 255 259 257 255 257 251 252 254 253 252 246 240 237 233 232 231 229 227 225 219 215 214 217 218 214 215 219 217 212 208 203 200 199 197 193 190 188 187 187 189 192 195 195 194 192
170 173 85 117 142 234 330 79 100 108 115 141 186 200 201 204 210 219 225 206 204 231 239 240 258 259 195 168 207 225 212 231 248 253 248 242 240 236 240 249 252 252 255 256 253 248 242 245 247 245 247 249 247 243 238 235 230 227 226 223 219 216 212 213 218 219 216 214 214 211 208 206 202 196 194 192 191 191 192 193 196 200 200 196 191 187
136 136 120 144 166 220 284 135 131 104 87 186 221 210 201 200 209 220 227 219 215 220 219 222 236 232 151 160 192 213 226 232 236 237 240 242 234 226 232 240 248 255 258 261 259 251 241 234 233 238 246 252 253 251 248 240 231 230 230 225 220 215 212 212 215 219 220 216 214 212 210 211 210 205 202 201 200 199 198 200 203 202 197 191 186 183
151 147 152 160 157 185 202 156 117 118 199 230 226 198 184 189 201 210 220 221 217 215 221 237 248 221 141 168 189 199 214 225 234 238 240 240 234 236 242 243 248 256 257 257 258 256 251 242 239 244 252 260 263 262 257 245 238 238 234 226 220 214 212 214 214 215 219 219 217 215 212 211 211 210 210 209 207 206 205 206 203 197 192 188 183 181
160 150 149 142 111 132 187 138 122 198 224 231 200 160 177 195 202 208 220 224 218 218 230 249 256 239 205 194 192 194 213 231 254 256 246 235 227 234 245 246 244 246 249 252 254 253 252 254 260 266 270 273 271 264 255 246 241 237 230 223 220 215 213 214 214 216 217 217 217 216 214 212 209 208 208 206 206 207 206 203 198 192 189 186 183 181
158 154 141 122 118 127 158 163 181 222 251 270 281 169 191 204 199 203 231 239 222 212 220 232 241 240 229 214 180 166 224 269 290 261 240 232 228 225 231 238 236 235 239 242 240 244 252 264 278 288 291 289 277 262 255 251 240 231 226 222 218 216 214 213 215 218 217 215 215 215 213 212 209 206 206 205 205 205 203 198 194 191 188 185 182 182
163 161 149 147 168 142 148 196 233 321 308 264 244 208 188 187 172 179 225 245 222 205 214 226 235 242 237 208 133 88 48 358 304 269 236 223 231 226 225 235 237 231 236 240 241 247 258 269 281 289 291 287 275 262 254 247 234 224 220 218 216 214 213 214 217 219 216 215 215 214 214 213 211 210 209 208 206 203 199 196 194 191 187 184 182 182
170 170 163 171 197 105 119 199 260 275 256 246 221 152 145 147 150 156 192 250 232 205 207 221 228 236 231 180 130 119 90 25 273 264 238 219 226 224 227 242 243 234 237 243 248 256 265 271 276 279 276 270 263 258 249 237 226 217 214 214 213 212 213 216 219 218 216 217 217 215 214 214 213 213 212 209 206 203 199 197 194 191 189 187 185 184
105 133 149 154 160 140 156 189 202 217 241 240 154 137 142 140 132 121 145 262 242 189 187 209 223 229 214 154 146 152 139 204 245 253 243 220 211 206 219 234 237 235 240 246 252 260 266 268 266 261 257 254 252 250 240 228 218 211 211 213 212 213 216 219 221 220 219 220 220 218 217 215 214 215 213 210 208 205 202 199 195 192 190 189 188 186
120 122 143 152 171 181 182 198 214 231 245 220 161 154 146 137 123 113 178 258 219 155 177 199 213 222 193 156 166 172 176 209 232 246 241 206 193 211 224 228 230 233 236 236 238 248 254 252 246 241 240 243 245 239 226 217 209 207 213 215 213 218 223 226 227 227 225 224 222 220 220 218 216 216 215 212 210 206 203 200 195 192 190 189 189 187
124 152 179 175 181 185 186 205 248 256 233 199 169 157 141 128 123 149 209 231 151 155 184 188 197 210 191 171 180 189 201 219 227 241 85 133 187 239 240 231 228 227 219 208 210 224 235 238 236 232 231 233 230 221 211 203 202 207 212 213 217 226 232 233 232 230 228 226 224 222 221 220 218 218 216 213 209 205 201 199 195 192 190 189 188 186
161 174 195 176 166 169 180 196 262 267 225 155 138 157 150 140 171 207 213 197 140 170 187 186 193 200 182 173 187 199 218 231 233 231 132 157 209 250 245 211 194 183 182 181 184 205 220 224 223 218 220 218 214 213 205 199 203 208 209 214 225 236 239 234 232 231 229 227 225 223 221 220 218 217 214 212 208 203 199 197 196 194 191 189 187 185
173 169 186 187 163 138 159 179 225 257 213 130 122 149 195 185 199 202 166 80 185 170 165 179 190 174 156 171 195 208 220 231 239 244 234 214 226 247 241 201 161 158 165 157 158 180 183 181 197 204 205 207 207 207 203 202 206 209 211 221 234 243 239 233 232 232 230 227 225 223 222 220 217 215 213 210 207 204 200 197 196 194 192 190 187 184
178 173 185 196 181 166 184 196 206 224 165 140 140 168 206 202 192 168 151 161 232 186 160 167 182 180 175 179 192 206 213 224 239 241 234 228 227 230 242 242 202 183 178 163 164 176 173 172 178 180 195 208 209 204 205 207 210 213 218 229 238 237 232 231 231 229 228 227 226 224 222 220 217 215 213 210 207 203 199 197 195 193 193 191 188 184
199 189 175 185 188 186 200 207 202 142 165 171 165 168 178 185 198 186 162 161 186 204 176 157 174 191 188 178 180 191 200 213 226 224 219 229 224 206 218 237 228 204 184 164 162 165 164 168 169 173 192 203 207 209 211 212 216 221 227 233 233 229 228 225 223 223 225 225 224 223 222 219 217 215 213 210 207 203 200 197 194 192 192 191 188 187
208 181 138 154 193 251 265 223 189 146 200 214 245 192 179 187 195 181 167 169 178 181 173 167 176 182 181 171 164 180 202 208 212 220 225 231 229 211 203 206 202 174 149 140 137 141 151 156 161 174 186 195 212 219 218 221 225 231 239 241 231 224 223 220 219 222 222 223 224 223 220 218 215 214 213 211 210 207 204 200 196 193 191 190 190 190
244 177 144 144 169 201 235 215 184 180 199 201 214 256 220 204 176 152 182 208 196 179 182 185 168 162 165 168 170 185 200 193 193 213 225 226 233 236 186 116 118 126 123 124 127 132 141 143 144 157 181 207 229 228 225 228 231 236 243 246 234 221 215 214 217 221 222 223 223 221 219 217 215 213 212 211 210 208 207 204 200 196 193 192 192 191
206 170 167 179 175 188 218 212 168 162 217 200 192 202 209 206 195 184 195 205 177 161 162 139 125 144 162 178 183 181 179 180 189 200 206 210 208 123 115 130 137 129 122 127 136 138 137 135 134 137 153 192 239 240 235 234 235 236 239 240 233 221 211 210 215 221 224 225 224 222 220 219 217 215 214 212 211 210 209 207 205 202 201 200 198 196
131 158 182 180 170 204 255 240 118 89 7 261 225 224 218 205 198 196 187 165 150 148 137 101 78 137 165 178 178 163 160 180 185 163 149 157 140 118 135 145 135 130 132 134 136 137 134 132 131 127 111 81 327 264 252 242 236 236 237 237 235 227 217 211 212 218 224 224 224 224 222 219 220 219 217 215 214 213 214 213 211 209 210 209 206 204
146 174 181 157 170 213 224 184 152 148 188 216 211 213 217 208 193 187 176 163 172 166 148 125 75 65 105 148 159 156 159 171 168 145 134 138 136 133 141 136 129 132 134 131 133 139 135 128 125 114 102 88 268 259 259 252 244 242 240 238 237 234 228 219 212 215 221 223 224 225 223 221 221 221 219 218 217 215 215 217 217 216 216 215 214 212
183 182 173 173 202 214 190 162 167 181 202 209 202 202 205 191 175 189 194 185 180 170 155 146 128 110 91 38 79 149 152 151 155 145 123 113 126 132 131 132 136 138 136 134 137 134 126 119 106 91 85 75 346 279 275 265 255 252 247 242 239 237 235 229 218 216 221 226 227 228 227 225 224 222 220 220 220 217 216 217 220 222 222 222 221 219